Regional Weather Roundup
Issued by NWS

Home | Current Version | Previous Version | Graphics & Text | Print | Product List | Glossary On
Versions: 1 2 3 4 5 6 7 8 9 10 11 12 13 14 15 16 17 18 19 20 21 22 23 24 25 26 27 28 29 30 31 32 33 34 35 36 37 38 39 40 41 42 43 44 45 46 47 48 49 50
000
ASUS45 KCYS 270110
RWRWY

WYOMING REGIONAL WEATHER ROUNDUP
NATIONAL WEATHER SERVICE CHEYENNE WY
700 PM MDT SUN JUL 26 2015

NOTE:  "FAIR" INDICATES FEW OR NO CLOUDS BELOW 12,000 FEET
WITH NO SIGNIFICANT WEATHER AND/OR OBSTRUCTIONS TO VISIBILITY.

WYZ001-270200-
YELLOWSTONE NATIONAL PARK

CITY           SKY/WX    TMP DP  RH WIND       PRES   REMARKS
LK YELLOWSTONE   N/A     71  25  17 W8G18     30.14S
W YELLOWSTONE  NOT AVBL

$$
WYZ002>013-054>058-071-098>099-270200-
NORTHERN WYOMING

CITY           SKY/WX    TMP DP  RH WIND       PRES   REMARKS
JACKSON        FAIR      79  41  25 W8        30.00F
CODY           FAIR      81  45  28 N10       29.87S
GREYBULL       FAIR      96  32  10 NW13      29.74F HX  90
WORLAND        FAIR      95  24   8 S9        29.76F
SHERIDAN       FAIR      85  48  27 NW15      29.80S
BUFFALO        FAIR      90  36  14 SE8       29.87F
GILLETTE       FAIR      90  39  16 SE8       29.85F
HULETT         FAIR      90  41  18 CALM      29.88F
NEWCASTLE      FAIR      91  32  12 CALM      29.86F

$$
WYZ014>020-022>026-101>103-270200-
CENTRAL WYOMING

CITY           SKY/WX    TMP DP  RH WIND       PRES   REMARKS
BIG PINEY      FAIR      78  33  19 W9        30.06F
PINEDALE       FAIR      81  23  12 W12G20    30.07S
DUBOIS         FAIR      79  27  14 NW12      30.05S
LANDER         FAIR      88  17   7 SW12G24   29.88F
RIVERTON       FAIR      91  22   8 S8        29.89F
CASPER         FAIR      92  24   8 SW12      29.90F
DOUGLAS        FAIR      89  30  12 E3        29.91F

$$
WYZ021-027>030-104>119-270200-
SOUTHERN WYOMING

CITY           SKY/WX    TMP DP  RH WIND       PRES   REMARKS
EVANSTON       FAIR      83  20   9 SW16      30.06F
KEMMERER       FAIR     N/A N/A N/A W14       30.08S
FORT BRIDGER   CLEAR     86  23  10 SW18G30   30.08S
ROCK SPRINGS   FAIR      85  25  11 S13       30.01F
DIXON          FAIR      86  30  13 SW9G16    30.06S
RAWLINS        FAIR      86  21   9 SW13G24   30.05F
SARATOGA       FAIR      86  28  12 SW10      30.09F
LARAMIE        FAIR      81  32  17 S9        30.10F
CHEYENNE       FAIR      79  51  37 S15G23    30.03F
TORRINGTON     FAIR      81  56  42 SE22G30   29.89F
PINE BLUFFS    FAIR      77  50  38 SE15G22   30.01F

$$


USA.gov is the U.S. government's official web portal to all federal, state and local government web resources and services.